Cheyenne, WY

4:10 PM MDT on May 22, 2018 (GMT -0600)
Cheyenne

Weather History for KCYS - March, 2012

Change the Weather History Date:

Sunday, March 25, 2012

  Actual Average Record
Temperature  
Mean Temperature 56 °F 38 °F  
Max Temperature 73 °F 50 °F 73 °F (2012)
Min Temperature 38 °F 26 °F -9 °F (1965)
Degree Days  
Heating Degree Days 9 27  
Month to date heating degree days 554 742  
Since 1 July heating degree days 5536 5761  
Cooling Degree Days 0 0  
Month to date cooling degree days 0 0  
Year to date cooling degree days 0 0  
Growing Degree Days 4 (Base 50)    
Moisture  
Dew Point 33 °F    
Average Humidity 54    
Maximum Humidity 92    
Minimum Humidity 15    
Precipitation  
Precipitation 0.00 in 0.04 in 0.58 in (1902)
Month to date precipitation T 0.81  
Year to date precipitation 1.03 1.61  
Snow  
Snow 0.00 in 0.30 in 7.60 in (1983)
Month to date snowfall T 8.9  
Since 1 July snowfall 51.1 45.4  
Snow Depth 0.00 in    
Sea Level Pressure  
Sea Level Pressure 29.91 in    
Wind  
Wind Speed 9 mph (SSW)    
Max Wind Speed 18 mph    
Max Gust Speed 23 mph    
Visibility 10 miles    
Events      
T = Trace of Precipitation, MM = Missing Value Source: NWS Daily Summary

Daily Weather History Graph

Daily Weather History Graph

Search for Another Location

Airport or City:

Astronomy

Mar. 25, 2012 Rise Set
Actual Time 6:53 AM MDT 7:17 PM MDT
Civil Twilight 6:25 AM MDT 7:45 PM MDT
Nautical Twilight 5:53 AM MDT 8:17 PM MDT
Astronomical Twilight 5:20 AM MDT 8:50 PM MDT
Moon 8:05 AM MDT (3/25) 10:37 PM MDT (3/25)
Length of Visible Light 13h 19m
Length of Day
12h 24m
Waxing Crescent, 9% of the Moon is Illuminated
Mar 25
Waxing Crescent
Mar 30
First Quarter
Apr 6
Full
Apr 13
Last Quarter
Apr 21
New

Hourly Weather History & Observations

Time (MDT) Temp. Windchill Dew Point Humidity Pressure Visibility Wind Dir Wind Speed Gust Speed Precip Events Conditions
12:53 AM 41.0 °F 36.4 °F 34.0 °F 76% 30.05 in 10.0 mi SW 6.9 mph - N/A   Clear
1:53 AM 42.1 °F 36.1 °F 35.1 °F 76% 30.01 in 10.0 mi South 10.4 mph - N/A   Clear
2:53 AM 41.0 °F 35.2 °F 35.1 °F 79% 29.99 in 10.0 mi SSW 9.2 mph - N/A   Clear
3:53 AM 41.0 °F 36.4 °F 36.0 °F 82% 29.97 in 10.0 mi SW 6.9 mph - N/A   Clear
4:53 AM 37.9 °F 32.1 °F 35.1 °F 89% 29.97 in 10.0 mi West 8.1 mph - N/A   Clear
5:53 AM 37.9 °F 31.5 °F 35.1 °F 89% 29.96 in 10.0 mi West 9.2 mph - N/A   Clear
6:53 AM 37.9 °F 33.5 °F 35.1 °F 89% 29.99 in 10.0 mi SW 5.8 mph - N/A   Clear
7:53 AM 39.0 °F 35.7 °F 34.0 °F 82% 30.02 in 10.0 mi West 4.6 mph - N/A   Clear
8:53 AM 46.9 °F - 37.9 °F 71% 29.98 in 10.0 mi SSW 6.9 mph - N/A   Clear
9:53 AM 54.0 °F - 37.9 °F 55% 29.96 in 10.0 mi SSW 6.9 mph - N/A   Clear
10:53 AM 59.0 °F - 34.0 °F 39% 29.93 in 10.0 mi SSW 8.1 mph - N/A   Clear
11:53 AM 63.0 °F - 32.0 °F 31% 29.90 in 10.0 mi SSW 9.2 mph - N/A   Clear
12:53 PM 64.0 °F - 30.0 °F 28% 29.89 in 10.0 mi South 8.1 mph - N/A   Clear
1:53 PM 70.0 °F - 21.0 °F 16% 29.84 in 10.0 mi South 8.1 mph - N/A   Clear
2:53 PM 72.0 °F - 21.0 °F 15% 29.81 in 10.0 mi SSE 17.3 mph 23.0 mph N/A   Clear
3:53 PM 68.0 °F - 28.0 °F 22% 29.82 in 10.0 mi South 15.0 mph - N/A   Clear
4:53 PM 66.9 °F - 19.0 °F 16% 29.83 in 10.0 mi SSE 11.5 mph - N/A   Clear
5:53 PM 64.9 °F - 27.0 °F 24% 29.84 in 10.0 mi South 16.1 mph - N/A   Clear
6:53 PM 60.1 °F - 34.0 °F 38% 29.87 in 10.0 mi South 9.2 mph - N/A   Clear
7:53 PM 57.0 °F - 35.1 °F 44% 29.88 in 10.0 mi South 6.9 mph - N/A   Clear
8:53 PM 53.1 °F - 39.0 °F 59% 29.87 in 10.0 mi South 8.1 mph - N/A   Clear
9:53 PM 51.1 °F - 39.9 °F 66% 29.84 in 10.0 mi South 3.5 mph - N/A   Clear
10:53 PM 46.9 °F - 39.9 °F 77% 29.82 in 10.0 mi SSW 4.6 mph - N/A   Clear
11:53 PM 48.9 °F - 43.0 °F 80% 29.77 in 10.0 mi SSE 4.6 mph - N/A   Clear